AEZ2229 LIMF-LIBF

Flight info

Callsign AEZ2229
Flight time 1h 8m
Altitude 35000
Route LAGEN DCT UNITA DCT KONER DCT BAKRO DCT KARDU DCT GIKIN DCT GENGI DCT ASPIR DCT URIPI
Aircraft A319/M-SDE3FGHIRWY/LB1

Departure

Time 2026-05-04 13:08
Airport Turin Airport (LIMF)

Arrival

Time 2026-05-04 14:17
Airport Foggia Gino Lisa Airport (LIBF)
Time Latitude Longitude Altitude Speed Heading
2026-05-04 12:56 45.19414 7.64587 958 ft 0 kts 92°
2026-05-04 13:05 45.19408 7.64737 959 ft 35 kts 93°
2026-05-04 13:05 45.19323 7.64869 956 ft 10 kts 215°
2026-05-04 13:06 45.19317 7.64852 954 ft 0 kts 259°
2026-05-04 13:06 45.19313 7.64818 957 ft 13 kts 259°
2026-05-04 13:06 45.19274 7.64686 957 ft 16 kts 216°
2026-05-04 13:06 45.19119 7.64659 950 ft 29 kts 182°
2026-05-04 13:07 45.18878 7.64642 941 ft 40 kts 183°
2026-05-04 13:07 45.18654 7.64649 934 ft 27 kts 145°
2026-05-04 13:07 45.18669 7.64858 932 ft 23 kts 15°
2026-05-04 13:07 45.18874 7.64887 941 ft 56 kts
2026-05-04 13:08 45.19489 7.64914 961 ft 120 kts
2026-05-04 13:08 45.20496 7.64979 1007 ft 166 kts
2026-05-04 13:08 45.21635 7.65054 1785 ft 154 kts
2026-05-04 13:08 45.22622 7.65106 2747 ft 130 kts
2026-05-04 13:09 45.23485 7.65153 3354 ft 120 kts
2026-05-04 13:09 45.24362 7.65200 3522 ft 140 kts
2026-05-04 13:09 45.25332 7.65217 4134 ft 121 kts
2026-05-04 13:09 45.26181 7.65256 4265 ft 145 kts 18°
2026-05-04 13:10 45.27086 7.66496 3816 ft 216 kts 63°
2026-05-04 13:10 45.27286 7.68743 4049 ft 248 kts 99°
2026-05-04 13:10 45.26850 7.71213 4732 ft 263 kts 105°
2026-05-04 13:10 45.26339 7.73743 5587 ft 272 kts 107°
2026-05-04 13:11 45.25806 7.76304 6659 ft 270 kts 107°
2026-05-04 13:11 45.25263 7.78874 7619 ft 272 kts 110°
2026-05-04 13:11 45.24456 7.81299 8544 ft 273 kts 125°
2026-05-04 13:11 45.23355 7.83498 9539 ft 274 kts 129°
2026-05-04 13:12 45.22235 7.85705 10423 ft 280 kts 129°
2026-05-04 13:12 45.21062 7.88018 10761 ft 304 kts 129°
2026-05-04 13:12 45.19778 7.90563 11013 ft 324 kts 129°
2026-05-04 13:12 45.18466 7.93177 11551 ft 336 kts 128°
2026-05-04 13:13 45.17027 7.95893 12253 ft 342 kts 135°
2026-05-04 13:13 45.15286 7.98126 12935 ft 344 kts 147°
2026-05-04 13:13 45.13196 7.99787 13591 ft 346 kts 160°
2026-05-04 13:13 45.10890 8.00771 14198 ft 348 kts 170°
2026-05-04 13:14 45.08516 8.01521 14819 ft 351 kts 170°
2026-05-04 13:14 45.06121 8.02281 15450 ft 355 kts 170°
2026-05-04 13:14 45.03699 8.03052 16120 ft 359 kts 170°
2026-05-04 13:14 45.01251 8.03834 16827 ft 363 kts 169°
2026-05-04 13:15 44.98787 8.04623 17370 ft 365 kts 169°
2026-05-04 13:15 44.96293 8.05422 17971 ft 369 kts 169°
2026-05-04 13:15 44.93776 8.06228 18545 ft 374 kts 169°
2026-05-04 13:15 44.91228 8.07049 19094 ft 377 kts 169°
2026-05-04 13:16 44.88652 8.07880 19649 ft 380 kts 169°
2026-05-04 13:16 44.86066 8.08713 20207 ft 383 kts 169°
2026-05-04 13:16 44.83498 8.09778 20746 ft 389 kts 160°
2026-05-04 13:16 44.81065 8.11503 21284 ft 395 kts 150°
2026-05-04 13:17 44.78785 8.13613 21815 ft 399 kts 149°
2026-05-04 13:17 44.76461 8.15768 22341 ft 402 kts 149°
2026-05-04 13:17 44.74120 8.17937 22846 ft 405 kts 149°
2026-05-04 13:17 44.71760 8.20127 23342 ft 408 kts 149°
2026-05-04 13:18 44.69373 8.22332 23799 ft 411 kts 149°
2026-05-04 13:18 44.66974 8.24538 24189 ft 414 kts 149°
2026-05-04 13:18 44.64557 8.26761 24572 ft 416 kts 149°
2026-05-04 13:18 44.62120 8.29003 24917 ft 420 kts 149°
2026-05-04 13:19 44.59666 8.31262 25294 ft 423 kts 149°
2026-05-04 13:19 44.57197 8.33532 25649 ft 426 kts 149°
2026-05-04 13:19 44.54709 8.35819 26027 ft 429 kts 149°
2026-05-04 13:19 44.52206 8.38115 26410 ft 432 kts 150°
2026-05-04 13:20 44.49706 8.40402 26767 ft 435 kts 150°
2026-05-04 13:20 44.47166 8.42722 27140 ft 438 kts 150°
2026-05-04 13:20 44.44616 8.45051 27498 ft 441 kts 150°
2026-05-04 13:20 44.42103 8.47569 27844 ft 447 kts 143°
2026-05-04 13:21 44.39882 8.50638 28183 ft 454 kts 133°
2026-05-04 13:21 44.38021 8.54258 28506 ft 461 kts 123°
2026-05-04 13:21 44.36577 8.58298 28819 ft 467 kts 117°
2026-05-04 13:21 44.35223 8.62429 29132 ft 470 kts 117°
2026-05-04 13:22 44.33843 8.66590 29437 ft 473 kts 117°
2026-05-04 13:22 44.32440 8.70766 29735 ft 475 kts 118°
2026-05-04 13:22 44.31024 8.74951 30030 ft 478 kts 118°
2026-05-04 13:22 44.29599 8.79152 30304 ft 481 kts 118°
2026-05-04 13:23 44.28161 8.83392 30544 ft 483 kts 118°
2026-05-04 13:23 44.26721 8.87650 30793 ft 486 kts 118°
2026-05-04 13:23 44.25277 8.91931 31042 ft 488 kts 118°
2026-05-04 13:23 44.23835 8.96208 31341 ft 488 kts 118°
2026-05-04 13:24 44.22389 9.00488 31703 ft 487 kts 118°
2026-05-04 13:24 44.20943 9.04752 32053 ft 486 kts 118°
2026-05-04 13:24 44.19494 9.09011 32409 ft 486 kts 118°
2026-05-04 13:25 44.16610 9.17444 33114 ft 485 kts 118°
2026-05-04 13:25 44.15163 9.21680 33470 ft 484 kts 118°
2026-05-04 13:25 44.13697 9.25971 33837 ft 484 kts 118°
2026-05-04 13:25 44.12270 9.30133 34184 ft 483 kts 118°
2026-05-04 13:26 44.10819 9.34356 34488 ft 483 kts 118°
2026-05-04 13:26 44.09366 9.38577 34780 ft 483 kts 118°
2026-05-04 13:26 44.07915 9.42785 35036 ft 484 kts 118°
2026-05-04 13:26 44.06457 9.47017 35095 ft 483 kts 118°
2026-05-04 13:27 44.03556 9.55423 35118 ft 481 kts 118°
2026-05-04 13:27 44.00648 9.63807 35123 ft 481 kts 118°
2026-05-04 13:28 43.97724 9.72189 35125 ft 482 kts 118°
2026-05-04 13:28 43.94812 9.80544 35131 ft 482 kts 118°
2026-05-04 13:29 43.91903 9.88865 35130 ft 482 kts 118°
2026-05-04 13:29 43.88964 9.97232 35125 ft 482 kts 118°
2026-05-04 13:30 43.86499 10.04220 35121 ft 483 kts 118°
2026-05-04 13:30 43.83550 10.12582 35124 ft 483 kts 118°
2026-05-04 13:31 43.80595 10.20924 35123 ft 483 kts 118°
2026-05-04 13:31 43.77628 10.29275 35129 ft 483 kts 118°
2026-05-04 13:32 43.74645 10.37631 35130 ft 483 kts 118°
2026-05-04 13:32 43.71686 10.45918 35130 ft 484 kts 118°
2026-05-04 13:33 43.68710 10.54237 35129 ft 484 kts 118°
2026-05-04 13:33 43.65710 10.62577 35126 ft 484 kts 118°
2026-05-04 13:34 43.62712 10.70896 35121 ft 484 kts 118°
2026-05-04 13:34 43.59712 10.79190 35110 ft 483 kts 118°
2026-05-04 13:35 43.55201 10.91630 35109 ft 484 kts 118°
2026-05-04 13:36 43.52176 10.99926 35111 ft 484 kts 119°
2026-05-04 13:36 43.49149 11.08192 35110 ft 483 kts 119°
2026-05-04 13:37 43.46119 11.16433 35107 ft 484 kts 119°
2026-05-04 13:37 43.43093 11.24647 35106 ft 484 kts 119°
2026-05-04 13:38 43.40046 11.32929 35107 ft 485 kts 119°
2026-05-04 13:38 43.36997 11.41190 35112 ft 485 kts 119°
2026-05-04 13:39 43.33927 11.49458 35112 ft 485 kts 119°
2026-05-04 13:39 43.30855 11.57712 35111 ft 485 kts 119°
2026-05-04 13:40 43.27773 11.65974 35109 ft 486 kts 119°
2026-05-04 13:40 43.24687 11.74218 35109 ft 486 kts 119°
2026-05-04 13:41 43.21617 11.82410 35107 ft 486 kts 119°
2026-05-04 13:41 43.18519 11.90644 35110 ft 487 kts 119°
2026-05-04 13:42 43.13849 12.03000 35115 ft 487 kts 119°
2026-05-04 13:42 43.10731 12.11237 35115 ft 487 kts 119°
2026-05-04 13:43 43.07599 12.19479 35121 ft 488 kts 119°
2026-05-04 13:43 43.04453 12.27708 35126 ft 488 kts 119°
2026-05-04 13:44 43.01302 12.35924 35128 ft 488 kts 119°
2026-05-04 13:44 42.98151 12.44134 35132 ft 489 kts 119°
2026-05-04 13:45 42.94990 12.52365 35131 ft 489 kts 119°
2026-05-04 13:45 42.91828 12.60568 35129 ft 488 kts 119°
2026-05-04 13:46 42.88654 12.68753 35130 ft 488 kts 119°
2026-05-04 13:46 42.85501 12.76874 34814 ft 486 kts 119°
2026-05-04 13:47 42.83921 12.80943 34067 ft 486 kts 119°
2026-05-04 13:47 42.82338 12.85020 33263 ft 486 kts 119°
2026-05-04 13:47 42.80756 12.89088 32534 ft 484 kts 119°
2026-05-04 13:47 42.79183 12.93121 31793 ft 481 kts 119°
2026-05-04 13:48 42.77611 12.97130 31075 ft 478 kts 119°
2026-05-04 13:48 42.76053 13.01098 30337 ft 476 kts 119°
2026-05-04 13:48 42.74491 13.05069 29468 ft 473 kts 120°
2026-05-04 13:48 42.72940 13.09015 28424 ft 474 kts 119°
2026-05-04 13:49 42.71382 13.12981 27266 ft 477 kts 119°
2026-05-04 13:49 42.69821 13.16947 26428 ft 474 kts 119°
2026-05-04 13:49 42.68269 13.20881 25645 ft 469 kts 119°
2026-05-04 13:49 42.66726 13.24791 24880 ft 465 kts 119°
2026-05-04 13:50 42.65203 13.28642 24160 ft 462 kts 120°
2026-05-04 13:50 42.63688 13.32466 23341 ft 458 kts 120°
2026-05-04 13:50 42.62185 13.36258 22581 ft 455 kts 120°
2026-05-04 13:50 42.60695 13.40023 21877 ft 450 kts 120°
2026-05-04 13:51 42.59218 13.43745 21183 ft 446 kts 120°
2026-05-04 13:51 42.57750 13.47434 20518 ft 442 kts 120°
2026-05-04 13:51 42.56294 13.51086 19865 ft 438 kts 120°
2026-05-04 13:51 42.54863 13.54668 19268 ft 435 kts 120°
2026-05-04 13:52 42.52000 13.61827 18105 ft 428 kts 121°
2026-05-04 13:52 42.50582 13.65365 17539 ft 424 kts 121°
2026-05-04 13:52 42.49185 13.68847 17058 ft 418 kts 121°
2026-05-04 13:53 42.47802 13.72287 16574 ft 412 kts 121°
2026-05-04 13:53 42.46437 13.75678 16063 ft 407 kts 121°
2026-05-04 13:53 42.45096 13.79014 15569 ft 401 kts 120°
2026-05-04 13:54 42.42461 13.85556 14615 ft 391 kts 120°
2026-05-04 13:54 42.41167 13.88765 14124 ft 385 kts 120°
2026-05-04 13:54 42.38626 13.95047 12990 ft 377 kts 120°
2026-05-04 13:55 42.37388 13.98108 12382 ft 373 kts 120°
2026-05-04 13:55 42.34910 14.04220 11252 ft 365 kts 120°
2026-05-04 13:55 42.33677 14.07247 11096 ft 368 kts 120°
2026-05-04 13:56 42.32438 14.10277 11105 ft 369 kts 120°
2026-05-04 13:56 42.31199 14.13309 11106 ft 369 kts 120°
2026-05-04 13:56 42.28721 14.19394 11106 ft 369 kts 120°
2026-05-04 13:57 42.27480 14.22430 11104 ft 369 kts 120°
2026-05-04 13:57 42.26236 14.25476 11107 ft 369 kts 120°
2026-05-04 13:58 42.22498 14.34583 11104 ft 370 kts 120°
2026-05-04 13:58 42.20014 14.40629 11100 ft 371 kts 120°
2026-05-04 13:58 42.18768 14.43669 11100 ft 371 kts 120°
2026-05-04 13:59 42.17522 14.46711 11096 ft 371 kts 120°
2026-05-04 13:59 42.16268 14.49751 11094 ft 371 kts 120°
2026-05-04 13:59 42.13750 14.55833 11092 ft 371 kts 120°
2026-05-04 14:00 42.12490 14.58872 11095 ft 372 kts 120°
2026-05-04 14:00 42.09968 14.64958 11096 ft 372 kts 120°
2026-05-04 14:00 42.08709 14.68000 11093 ft 372 kts 120°
2026-05-04 14:01 42.07449 14.71042 11103 ft 372 kts 120°
2026-05-04 14:01 42.06187 14.74084 11101 ft 372 kts 120°
2026-05-04 14:01 42.03648 14.80181 11107 ft 373 kts 120°
2026-05-04 14:02 42.02380 14.83222 11109 ft 373 kts 120°
2026-05-04 14:02 42.01112 14.86264 11108 ft 373 kts 120°
2026-05-04 14:02 41.99844 14.89299 11114 ft 373 kts 120°
2026-05-04 14:02 41.98572 14.92338 11115 ft 373 kts 120°
2026-05-04 14:03 41.97297 14.95373 11119 ft 373 kts 120°
2026-05-04 14:03 41.96023 14.98408 11118 ft 373 kts 120°
2026-05-04 14:03 41.94750 15.01444 11124 ft 373 kts 120°
2026-05-04 14:03 41.93494 15.04441 11122 ft 373 kts 120°
2026-05-04 14:04 41.90941 15.10505 11128 ft 373 kts 120°
2026-05-04 14:04 41.89661 15.13535 11127 ft 373 kts 120°
2026-05-04 14:04 41.88258 15.16460 11126 ft 373 kts 128°
2026-05-04 14:05 41.84502 15.20871 11126 ft 341 kts 149°
2026-05-04 14:05 41.82506 15.22428 11128 ft 323 kts 150°
2026-05-04 14:05 41.80617 15.23901 11125 ft 307 kts 150°
2026-05-04 14:06 41.78799 15.25324 11130 ft 299 kts 150°
2026-05-04 14:06 41.77015 15.26724 11129 ft 297 kts 150°
2026-05-04 14:06 41.75222 15.28122 11130 ft 297 kts 150°
2026-05-04 14:06 41.73436 15.29508 11130 ft 297 kts 150°
2026-05-04 14:07 41.71674 15.30875 11058 ft 295 kts 150°
2026-05-04 14:07 41.69882 15.32274 10694 ft 294 kts 150°
2026-05-04 14:07 41.68148 15.33629 10316 ft 293 kts 150°
2026-05-04 14:07 41.66395 15.34998 9959 ft 291 kts 150°
2026-05-04 14:08 41.64646 15.36351 9579 ft 289 kts 150°
2026-05-04 14:08 41.62914 15.37696 9213 ft 287 kts 150°
2026-05-04 14:08 41.61192 15.39033 8846 ft 285 kts 150°
2026-05-04 14:08 41.59489 15.40350 8621 ft 278 kts 150°
2026-05-04 14:09 41.56265 15.42841 8358 ft 257 kts 150°
2026-05-04 14:09 41.54750 15.44014 8231 ft 247 kts 150°
2026-05-04 14:10 41.51894 15.46223 7924 ft 230 kts 150°
2026-05-04 14:10 41.50518 15.47287 7651 ft 227 kts 150°
2026-05-04 14:10 41.49158 15.48339 7370 ft 226 kts 150°
2026-05-04 14:10 41.47802 15.49389 7075 ft 224 kts 150°
2026-05-04 14:11 41.46455 15.50428 6777 ft 223 kts 150°
2026-05-04 14:11 41.43779 15.52489 6161 ft 221 kts 151°
2026-05-04 14:11 41.42445 15.53496 5874 ft 220 kts 153°
2026-05-04 14:12 41.41083 15.54417 5550 ft 219 kts 155°
2026-05-04 14:12 41.39727 15.55269 5270 ft 218 kts 160°
2026-05-04 14:12 41.36819 15.54883 4682 ft 212 kts 198°
2026-05-04 14:13 41.35412 15.54305 4496 ft 208 kts 199°
2026-05-04 14:13 41.34009 15.54078 4348 ft 203 kts 167°
2026-05-04 14:13 41.32922 15.55134 4257 ft 193 kts 120°
2026-05-04 14:13 41.32796 15.56802 4104 ft 180 kts 72°
2026-05-04 14:14 41.33515 15.58042 3968 ft 164 kts 32°
2026-05-04 14:14 41.35546 15.58006 3479 ft 147 kts 333°
2026-05-04 14:14 41.36447 15.57484 3259 ft 137 kts 335°
2026-05-04 14:15 41.38259 15.56377 2395 ft 151 kts 334°
2026-05-04 14:15 41.40227 15.55230 1518 ft 156 kts 334°
2026-05-04 14:16 41.42261 15.54081 539 ft 160 kts 338°
2026-05-04 14:16 41.42932 15.53702 313 ft 152 kts 340°
2026-05-04 14:17 41.43936 15.53168 301 ft 2 kts 55°
2026-05-04 14:17 41.43937 15.53170 301 ft 0 kts 55°